Whiteman AFB, MO

10:30 AM CDT on May 21, 2018 (GMT -0500)
Whiteman Air Force Base

Weather History for KSZL - December, 2013

Change the Weather History Date:

Wednesday, December 4, 2013

  Actual Average Record
Temperature  
Mean Temperature 39 °F -  
Max Temperature 51 °F 46 °F 73 °F (2001)
Min Temperature 25 °F 29 °F 3 °F (2006)
Degree Days  
Heating Degree Days 26    
Moisture  
Dew Point 40 °F    
Average Humidity 89    
Maximum Humidity 100    
Minimum Humidity 73    
Precipitation  
Precipitation 0.00 in - - ()
Sea Level Pressure  
Sea Level Pressure 29.66 in    
Wind  
Wind Speed 9 mph (WSW)    
Max Wind Speed 17 mph    
Max Gust Speed 22 mph    
Visibility 7 miles    
Events      
Averages and records for this station are not official NWS values.
T = Trace of Precipitation, MM = Missing Value Source: NWS Daily Summary

Daily Weather History Graph

Daily Weather History Graph

Search for Another Location

Airport or City:

Astronomy

Dec. 04, 2013 Rise Set
Actual Time 7:16 AM CST 4:52 PM CST
Civil Twilight 6:46 AM CST 5:22 PM CST
Nautical Twilight 6:13 AM CST 5:55 PM CST
Astronomical Twilight 5:41 AM CST 6:27 PM CST
Moon 8:45 AM CST (12/4) 7:03 PM CST (12/4)
Length of Visible Light 10h 35m
Length of Day
9h 36m
Waxing Crescent, 4% of the Moon is Illuminated
Dec 4
Waxing Crescent
Dec 9
First Quarter
Dec 17
Full
Dec 25
Last Quarter
Jan 1
New

Hourly Weather History & Observations

Time (CST) Temp. Windchill Dew Point Humidity Pressure Visibility Wind Dir Wind Speed Gust Speed Precip Events Conditions
12:58 AM 48.7 °F - 47.1 °F 94% 29.60 in 8.0 mi South 5.8 mph - N/A   Mostly Cloudy
1:58 AM 49.3 °F - 47.8 °F 95% 29.59 in 8.0 mi SSE 5.8 mph - N/A   Mostly Cloudy
2:48 AM 50.0 °F - 48.2 °F 94% 29.58 in 7.0 mi South 8.1 mph - N/A   Overcast
2:58 AM 50.0 °F - 48.6 °F 95% 29.57 in 7.0 mi South 6.9 mph - N/A   Overcast
3:58 AM 50.5 °F - 49.3 °F 95% 29.58 in 7.0 mi South 6.9 mph - N/A   Overcast
4:58 AM 51.3 °F - 49.6 °F 94% 29.57 in 8.0 mi South 6.9 mph - N/A   Overcast
5:58 AM 51.8 °F - 49.5 °F 92% 29.57 in 10.0 mi East 2.3 mph - N/A   Overcast
6:58 AM 47.7 °F - 46.6 °F 96% 29.55 in 5.0 mi ESE 5.8 mph - N/A   Mostly Cloudy
7:03 AM 48.2 °F - 46.4 °F 93% 29.53 in 6.0 mi SE 6.9 mph - N/A   Mostly Cloudy
7:23 AM 48.2 °F - 46.4 °F 93% 29.53 in 7.0 mi SSE 9.2 mph - N/A   Partly Cloudy
7:58 AM 48.0 °F - 46.9 °F 96% 29.55 in 9.0 mi South 9.2 mph - N/A   Clear
8:40 AM 46.4 °F 44.3 °F 46.4 °F 100% 29.56 in 4.0 mi SSW 4.6 mph - N/A   Mostly Cloudy
8:48 AM 48.2 °F - 46.4 °F 93% 29.56 in 4.0 mi South 6.9 mph - N/A   Mostly Cloudy
8:58 AM 48.6 °F - 47.1 °F 95% 29.57 in 4.0 mi South 9.2 mph - N/A   Mostly Cloudy
9:31 AM 50.0 °F - 48.2 °F 94% 29.57 in 8.0 mi SSW 11.5 mph - N/A   Overcast
9:58 AM 48.9 °F - 46.9 °F 93% 29.58 in 4.0 mi SW 9.2 mph - N/A   Overcast
10:38 AM 50.0 °F - 46.4 °F 87% 29.57 in 5.0 mi WSW 10.4 mph - N/A   Overcast
10:58 AM 49.5 °F - 46.8 °F 90% 29.58 in 7.0 mi WSW 9.2 mph - N/A   Overcast
11:30 AM 50.0 °F - 46.4 °F 87% 29.57 in 10.0 mi WSW 10.4 mph - N/A   Overcast
11:58 AM 50.2 °F - 47.1 °F 89% 29.57 in 2.5 mi WSW 10.4 mph - N/A   Light Drizzle
12:03 PM 48.2 °F - 44.6 °F 87% 29.57 in 1.5 mi NW 17.3 mph 21.9 mph N/A   Light Drizzle
12:17 PM 42.8 °F 35.1 °F 41.0 °F 93% 29.58 in 2.0 mi NW 16.1 mph - N/A   Light Drizzle
12:44 PM 42.8 °F 36.6 °F 41.0 °F 93% 29.60 in 2.0 mi WNW 11.5 mph - N/A   Light Drizzle
12:58 PM 41.7 °F 34.8 °F 40.6 °F 96% 29.62 in 2.5 mi West 12.7 mph - 0.00 in   Light Drizzle
1:26 PM 41.0 °F 34.3 °F 39.2 °F 93% 29.62 in 3.0 mi West 11.5 mph - N/A   Light Drizzle
1:45 PM 41.0 °F 34.3 °F 39.2 °F 93% 29.64 in 5.0 mi West 11.5 mph - N/A   Overcast
1:58 PM 41.7 °F 35.6 °F 40.1 °F 94% 29.65 in 4.0 mi West 10.4 mph - 0.00 in   Overcast
2:18 PM 41.0 °F 33.5 °F 37.4 °F 87% 29.65 in 5.0 mi West 13.8 mph - N/A   Overcast
2:43 PM 41.0 °F 33.9 °F 37.4 °F 87% 29.67 in 6.0 mi West 12.7 mph - N/A   Overcast
2:58 PM 39.6 °F 31.7 °F 35.8 °F 86% 29.70 in 10.0 mi WNW 13.8 mph - N/A   Overcast
3:58 PM 36.7 °F 28.0 °F 32.0 °F 83% 29.75 in 10.0 mi West 13.8 mph - N/A   Overcast
4:58 PM 35.2 °F 26.6 °F 29.8 °F 81% 29.78 in 10.0 mi WNW 12.7 mph - N/A   Overcast
5:58 PM 32.9 °F 23.7 °F 27.7 °F 81% 29.83 in 10.0 mi WNW 12.7 mph - N/A   Overcast
6:58 PM 31.8 °F 22.8 °F 26.1 °F 79% 29.87 in 10.0 mi West 11.5 mph - N/A   Overcast
7:58 PM 30.2 °F 21.3 °F 23.7 °F 77% 29.91 in 10.0 mi WNW 10.4 mph - N/A   Overcast
8:03 PM 30.2 °F 19.3 °F 23.0 °F 75% 29.88 in 10.0 mi WNW 15.0 mph - N/A   Overcast
8:58 PM 29.1 °F 18.4 °F 21.9 °F 74% 29.94 in 10.0 mi WNW 13.8 mph 19.6 mph N/A   Overcast
9:58 PM 28.2 °F 16.8 °F 21.4 °F 76% 29.97 in 10.0 mi WNW 15.0 mph - N/A   Overcast
10:58 PM 27.0 °F 17.3 °F 19.2 °F 73% 29.99 in 10.0 mi NW 10.4 mph - N/A   Mostly Cloudy
11:58 PM 25.7 °F 15.7 °F 18.3 °F 74% 30.02 in 10.0 mi NW 10.4 mph - N/A   Mostly Cloudy